TimeEDT,TemperatureF,Dew PointF,Humidity,Sea Level PressureIn,VisibilityMPH,Wind Direction,Wind SpeedMPH,Gust SpeedMPH,PrecipitationIn,Events,Conditions,WindDirDegrees,DateUTC
12:00 AM,56.1,50.4,81,29.56,-9999.0,NE,18.4,33.4,N/A,,Unknown,40,2012-10-30 04:00:00
1:00 AM,56.8,50.4,79,29.55,-9999.0,NE,15.0,29.9,N/A,,Unknown,40,2012-10-30 05:00:00
2:00 AM,57,51,73,29.55,,NE,15.0,,,,,50,2012-10-30 06:00:00
2:00 AM,57.0,50.7,79,29.55,-9999.0,NE,15.0,25.3,N/A,,Unknown,50,2012-10-30 06:00:00
3:00 AM,56.7,50.9,81,29.54,-9999.0,NE,17.3,26.5,N/A,,Unknown,50,2012-10-30 07:00:00
4:00 AM,56.5,50.9,82,29.55,-9999.0,NE,13.8,24.2,N/A,,Unknown,50,2012-10-30 08:00:00
5:00 AM,55.9,50.5,82,29.53,-9999.0,NE,13.8,26.5,N/A,,Unknown,40,2012-10-30 09:00:00
6:00 AM,55.6,50.7,84,29.53,-9999.0,NE,13.8,24.2,N/A,,Unknown,50,2012-10-30 10:00:00
7:00 AM,55.9,50.9,83,29.54,-9999.0,NE,13.8,23.0,N/A,,Unknown,50,2012-10-30 11:00:00
8:00 AM,56,51,77,29.55,,NE,13.8,,,,,50,2012-10-30 12:00:00
8:00 AM,55.8,50.9,84,29.55,-9999.0,NE,13.8,25.3,N/A,,Unknown,50,2012-10-30 12:00:00
9:00 AM,56.7,51.6,83,29.57,-9999.0,NE,13.8,23.0,N/A,,Unknown,50,2012-10-30 13:00:00
10:00 AM,58.3,52.5,81,29.59,-9999.0,ENE,11.5,18.4,N/A,,Unknown,60,2012-10-30 14:00:00
12:00 PM,63.1,56.1,78,29.58,-9999.0,NE,10.4,17.3,N/A,,Unknown,50,2012-10-30 16:00:00
1:00 PM,63.1,57.9,83,29.57,-9999.0,NE,3.5,-,0.05,,Unknown,50,2012-10-30 17:00:00
2:00 PM,65,60,78,29.56,,East,9.2,,,,,80,2012-10-30 18:00:00
2:00 PM,65.3,59.9,83,29.56,-9999.0,East,9.2,-,0.02,,Unknown,80,2012-10-30 18:00:00
3:00 PM,68.5,58.8,71,29.55,-9999.0,East,6.9,-,N/A,,Unknown,80,2012-10-30 19:00:00
4:00 PM,69.3,53.8,58,29.56,-9999.0,East,10.4,19.6,N/A,,Unknown,100,2012-10-30 20:00:00
5:00 PM,68.5,54.0,60,29.57,-9999.0,East,8.1,-,N/A,,Unknown,100,2012-10-30 21:00:00
6:00 PM,66.2,52.5,61,29.57,-9999.0,East,8.1,-,N/A,,Unknown,80,2012-10-30 22:00:00
7:00 PM,64.0,54.1,70,29.59,-9999.0,East,6.9,-,N/A,,Unknown,80,2012-10-30 23:00:00
8:00 PM,65,55,61,29.59,,ENE,8.1,,,,,70,2012-10-31 00:00:00
8:00 PM,64.9,54.9,70,29.59,-9999.0,ENE,8.1,-,N/A,,Unknown,70,2012-10-31 00:00:00
9:00 PM,59.7,55.9,87,29.59,-9999.0,North,4.6,-,N/A,,Unknown,10,2012-10-31 01:00:00
10:00 PM,58.1,55.8,92,29.59,-9999.0,NNE,5.8,-,0.08,,Unknown,30,2012-10-31 02:00:00
11:00 PM,57.0,55.4,94,29.56,-9999.0,NNE,6.9,-,0.23,,Unknown,20,2012-10-31 03:00:00